This is the latest recevied weather packets stored in our database for station/object KB4KY. If no packets are shown the sender has not sent any weather packets the latest 1 day(s).
| Time | Temp. | Humidity | Pressure | Rain* | Wind** | Luminosity | Snow |
|---|---|---|---|---|---|---|---|
| 1778084341 | 16.11° C | 68% | 1012.8 hPa | 0 mm | - | - | - |
| 1778083124 | 14.44° C | 75% | 1013.2 hPa | 0 mm | - | - | - |
| 1778082825 | 14.44° C | 69% | 1013 hPa | 0 mm | - | - | - |
| 1778082524 | 14.44° C | 73% | 1012.7 hPa | 0 mm | - | - | - |
| 1778081623 | 15° C | 72% | 1012.8 hPa | 0 mm | - | - | - |
| 1778081022 | 14.44° C | 72% | 1012.8 hPa | 0 mm | - | - | - |
| 1778080759 | 13.89° C | 72% | 1012.7 hPa | 0 mm | - | - | - |
| 1778080461 | 13.89° C | 73% | 1012.6 hPa | 0 mm | - | - | - |
| 1778080125 | 13.89° C | 73% | 1012.5 hPa | 0 mm | - | - | - |
| 1778079220 | 13.33° C | 76% | 1012.5 hPa | 0 mm | - | - | - |
| 1778078920 | 12.78° C | 79% | 1012.6 hPa | 0 mm | - | - | - |
| 1778078322 | 12.22° C | 81% | 1012.8 hPa | 0 mm | - | - | - |
| 1778078251 | 10.56° C | 84% | 1012.7 hPa | 0 mm | - | - | - |
| 1778078019 | 11.67° C | 82% | 1012.6 hPa | 0 mm | - | - | - |
| 1778077118 | 10.56° C | 84% | 1012.8 hPa | 0 mm | - | - | - |
| 1778076818 | 10.56° C | 84% | 1012.7 hPa | 0 mm | - | - | - |
| 1778076218 | 10.56° C | 86% | 1012.7 hPa | 0 mm | - | - | - |
| 1778075917 | 10° C | 87% | 1012.6 hPa | 0 mm | - | - | - |
| 1778075016 | 10° C | 87% | 1012.2 hPa | 0 mm | - | - | - |
| 1778072614 | 9.44° C | 91% | 1011.7 hPa | 0 mm | - | - | - |
| 1778072016 | 9.44° C | 91% | 1011.6 hPa | 0 mm | - | - | - |
| 1778071713 | 9.44° C | 91% | 1011.6 hPa | 0 mm | - | - | - |
| 1778071413 | 9.44° C | 92% | 1011.7 hPa | 0 mm | - | - | - |
| 1778071355 | 8.89° C | 92% | 1011.8 hPa | 0 mm | - | - | - |
| 1778070812 | 8.89° C | 92% | 1011.5 hPa | 0 mm | - | - | - |
* Rain latest hour (hover to see other rain measurements)
** Current wind speed in m/s (hover to see current wind gust speed)